Wahpeton, MN

7:32 AM CDT on October 16, 2019 (GMT -0500)
Stern

Weather History for KBWP - August, 2019

Change the Weather History Date:

Tuesday, August 27, 2019

  Actual Average (WUND) Record (WUND)
Temperature  
Mean Temperature 58 °F -  
Max Temperature 64 °F - - (-1)
Min Temperature 53 °F - - (-1)
Degree Days  
Heating Degree Days 6    
Growing Degree Days 8 (Base 50)    
Moisture  
Dew Point 50 °F    
Average Humidity 76    
Maximum Humidity 94    
Minimum Humidity 55    
Precipitation  
Precipitation 0.00 in - - ()
Sea Level Pressure  
Sea Level Pressure 29.77 in    
Wind  
Wind Speed 13 mph ()    
Max Wind Speed 30 mph    
Max Gust Speed 37 mph    
Visibility 9.8 miles    
Events      
Averages and records for this station are not official NWS values.
T = Trace of Precipitation, MM = Missing Value Source: Averaged Metar Reports

Daily Weather History Graph

Daily Weather History Graph

Search for Another Location

Airport or City:

Astronomy

Aug. 27, 2019 Rise Set
Actual Time 6:40 AM CDT 8:14 PM CDT
Civil Twilight 6:08 AM CDT 8:46 PM CDT
Nautical Twilight 5:30 AM CDT 9:24 PM CDT
Astronomical Twilight 4:48 AM CDT 10:05 PM CDT
Moon 2:53 AM CDT (8/27) 6:48 PM CDT (8/27)
Length of Visible Light 14h 37m
Length of Day
13h 34m
Waning Crescent, 11% of the Moon is Illuminated
Aug 27
Waning Crescent
Aug 30
New
Sep 5
First Quarter
Sep 13
Full
Sep 21
Last Quarter

Hourly Weather History & Observations

Time (CDT) Temp. Dew Point Humidity Pressure Visibility Wind Dir Wind Speed Gust Speed Precip Events Conditions
12:15 AM 55.4 °F 53.6 °F 94% 29.75 in 10.0 mi WSW 8.1 mph - N/A   Unknown
12:35 AM 55.4 °F 53.6 °F 94% 29.75 in 10.0 mi West 6.9 mph - N/A   Unknown
12:55 AM 55.4 °F 53.6 °F 94% 29.75 in 10.0 mi West 9.2 mph - N/A   Unknown
1:15 AM 57.2 °F 51.8 °F 82% 29.75 in 10.0 mi West 10.4 mph - N/A   Unknown
1:35 AM 57.2 °F 51.8 °F 82% 29.75 in 10.0 mi West 10.4 mph - N/A   Unknown
1:55 AM 55.4 °F 51.8 °F 88% 29.75 in 10.0 mi West 10.4 mph - N/A   Unknown
2:15 AM 55.4 °F 51.8 °F 88% 29.75 in 10.0 mi West 9.2 mph - N/A   Unknown
2:35 AM 57.2 °F 51.8 °F 82% 29.75 in 10.0 mi West 10.4 mph - N/A   Unknown
2:55 AM 57.2 °F 51.8 °F 82% 29.74 in 10.0 mi West 10.4 mph - N/A   Unknown
3:15 AM 57.2 °F 51.8 °F 82% 29.74 in 10.0 mi West 10.4 mph - N/A   Unknown
3:35 AM 55.4 °F 51.8 °F 88% 29.74 in 10.0 mi West 9.2 mph - N/A   Unknown
3:55 AM 55.4 °F 51.8 °F 88% 29.74 in 10.0 mi West 10.4 mph - N/A   Unknown
4:15 AM 55.4 °F 51.8 °F 88% 29.74 in 10.0 mi West 10.4 mph - N/A   Unknown
4:35 AM 55.4 °F 51.8 °F 88% 29.74 in 10.0 mi West 11.5 mph - N/A   Unknown
4:55 AM 55.4 °F 51.8 °F 88% 29.74 in 10.0 mi West 12.7 mph - N/A   Unknown
5:15 AM 55.4 °F 50.0 °F 82% 29.74 in 10.0 mi West 11.5 mph - N/A   Unknown
5:35 AM 53.6 °F 50.0 °F 88% 29.75 in 10.0 mi West 11.5 mph - N/A   Unknown
5:55 AM 53.6 °F 50.0 °F 88% 29.75 in 10.0 mi West 12.7 mph - N/A   Unknown
6:15 AM 53.6 °F 50.0 °F 88% 29.75 in 10.0 mi West 11.5 mph 19.6 mph N/A   Unknown
6:35 AM 53.6 °F 50.0 °F 88% 29.76 in 10.0 mi West 12.7 mph - N/A   Unknown
6:55 AM 53.6 °F 48.2 °F 82% 29.76 in 10.0 mi West 11.5 mph - N/A   Unknown
7:15 AM 53.6 °F 48.2 °F 82% 29.76 in 10.0 mi West 11.5 mph - N/A   Unknown
7:35 AM 53.6 °F 48.2 °F 82% 29.76 in 10.0 mi West 11.5 mph - N/A   Unknown
7:55 AM 55.4 °F 50.0 °F 82% 29.76 in 10.0 mi West 12.7 mph - N/A   Unknown
8:15 AM 55.4 °F 50.0 °F 82% 29.76 in 10.0 mi West 13.8 mph - N/A   Unknown
8:35 AM 57.2 °F 50.0 °F 77% 29.76 in 10.0 mi West 15.0 mph 20.7 mph N/A   Unknown
8:55 AM 59.0 °F 50.0 °F 72% 29.76 in 10.0 mi West 15.0 mph 24.2 mph N/A   Unknown
9:15 AM 59.0 °F 48.2 °F 67% 29.76 in 10.0 mi West 17.3 mph 24.2 mph N/A   Unknown
9:55 AM 60.8 °F 48.2 °F 63% 29.76 in 10.0 mi WNW 21.9 mph 27.6 mph N/A   Unknown
10:15 AM 62.6 °F 48.2 °F 59% 29.76 in 10.0 mi West 19.6 mph 25.3 mph N/A   Unknown
10:35 AM 62.6 °F 46.4 °F 55% 29.76 in 10.0 mi West 23.0 mph 27.6 mph N/A   Unknown
10:55 AM 62.6 °F 46.4 °F 55% 29.76 in 10.0 mi West 24.2 mph 29.9 mph N/A   Unknown
11:15 AM 62.6 °F 48.2 °F 59% 29.76 in 10.0 mi West 25.3 mph 32.2 mph N/A   Unknown
11:35 AM 62.6 °F 46.4 °F 55% 29.76 in 10.0 mi West 29.9 mph 36.8 mph N/A   Unknown
11:55 AM 62.6 °F 46.4 °F 55% 29.76 in 10.0 mi West 24.2 mph 33.4 mph N/A   Unknown
12:15 PM 62.6 °F 46.4 °F 55% 29.76 in 10.0 mi WNW 21.9 mph 35.7 mph N/A   Unknown
12:35 PM 62.6 °F 46.4 °F 55% 29.76 in 10.0 mi West 23.0 mph 29.9 mph N/A   Unknown
12:55 PM 62.6 °F 46.4 °F 55% 29.76 in 10.0 mi West 23.0 mph 32.2 mph N/A   Unknown
1:15 PM 60.8 °F 48.2 °F 63% 29.76 in 10.0 mi West 19.6 mph 33.4 mph N/A   Unknown
1:35 PM 62.6 °F 48.2 °F 59% 29.76 in 10.0 mi West 26.5 mph 35.7 mph N/A   Unknown
1:55 PM 62.6 °F 48.2 °F 59% 29.76 in 10.0 mi West 24.2 mph 32.2 mph N/A   Unknown
2:15 PM 59.0 °F 48.2 °F 67% 29.77 in 10.0 mi West 21.9 mph 34.5 mph N/A   Unknown
2:35 PM 60.8 °F 48.2 °F 63% 29.77 in 10.0 mi West 21.9 mph 29.9 mph N/A   Unknown
2:55 PM 62.6 °F 48.2 °F 59% 29.76 in 10.0 mi West 25.3 mph 33.4 mph N/A   Unknown
3:15 PM 60.8 °F 50.0 °F 68% 29.77 in 10.0 mi West 20.7 mph 33.4 mph N/A   Unknown
3:35 PM 62.6 °F 50.0 °F 63% 29.77 in 10.0 mi West 24.2 mph 33.4 mph N/A   Unknown
3:55 PM 62.6 °F 50.0 °F 63% 29.77 in 10.0 mi West 23.0 mph 32.2 mph N/A   Unknown
4:15 PM 62.6 °F 50.0 °F 63% 29.78 in 10.0 mi West 20.7 mph 29.9 mph N/A   Unknown
4:35 PM 64.4 °F 51.8 °F 64% 29.77 in 10.0 mi West 27.6 mph 34.5 mph N/A   Unknown
4:55 PM 62.6 °F 50.0 °F 63% 29.77 in 10.0 mi WNW 23.0 mph 34.5 mph N/A   Unknown
5:15 PM 60.8 °F 51.8 °F 72% 29.78 in 10.0 mi WNW 23.0 mph 31.1 mph N/A   Unknown
5:35 PM 62.6 °F 50.0 °F 63% 29.79 in 10.0 mi West 23.0 mph 32.2 mph N/A   Unknown
5:55 PM 62.6 °F 50.0 °F 63% 29.79 in 10.0 mi West 17.3 mph 29.9 mph N/A   Unknown
6:15 PM 62.6 °F 50.0 °F 63% 29.79 in 10.0 mi WNW 16.1 mph 26.5 mph N/A   Unknown
6:35 PM 60.8 °F 51.8 °F 72% 29.79 in 10.0 mi West 11.5 mph - N/A   Unknown
6:55 PM 59.0 °F 51.8 °F 77% 29.79 in 10.0 mi North 13.8 mph 19.6 mph N/A   Unknown
7:15 PM 57.2 °F 53.6 °F 88% 29.81 in 1.2 mi NW 12.7 mph 16.1 mph N/A   Unknown
7:35 PM 57.2 °F 51.8 °F 82% 29.79 in 7.0 mi WNW 12.7 mph - N/A   Unknown
7:55 PM 57.2 °F 51.8 °F 82% 29.80 in 10.0 mi NW 8.1 mph - N/A   Unknown
8:15 PM 57.2 °F 51.8 °F 82% 29.81 in 10.0 mi NW 10.4 mph - N/A   Unknown
8:35 PM 57.2 °F 51.8 °F 82% 29.81 in 10.0 mi WNW 6.9 mph - N/A   Unknown
8:55 PM 55.4 °F 51.8 °F 88% 29.82 in 10.0 mi West 11.5 mph - N/A   Unknown
9:15 PM 55.4 °F 51.8 °F 88% 29.83 in 10.0 mi West 12.7 mph - N/A   Unknown
9:35 PM 55.4 °F 51.8 °F 88% 29.83 in 10.0 mi West 10.4 mph - N/A   Unknown
9:55 PM 55.4 °F 51.8 °F 88% 29.83 in 10.0 mi West 11.5 mph - N/A   Unknown
10:15 PM 55.4 °F 51.8 °F 88% 29.83 in 10.0 mi West 11.5 mph 16.1 mph N/A   Unknown
10:35 PM 55.4 °F 51.8 °F 88% 29.84 in 10.0 mi West 12.7 mph - N/A   Unknown
10:55 PM 55.4 °F 51.8 °F 88% 29.84 in 10.0 mi West 13.8 mph - N/A   Unknown
11:15 PM 55.4 °F 51.8 °F 88% 29.84 in 10.0 mi West 13.8 mph 19.6 mph N/A   Unknown
11:35 PM 55.4 °F 51.8 °F 88% 29.84 in 10.0 mi WNW 13.8 mph - N/A   Unknown
11:55 PM 55.4 °F 51.8 °F 88% 29.85 in 10.0 mi WNW 12.7 mph 18.4 mph N/A   Unknown